Overview Statistics Trail Chart Weather Telemetry Raw packets
 

This is the latest recevied weather packets stored in our database for station/object KF6RAL-6. If no packets are shown the sender has not sent any weather packets the latest 10 day(s).

<< 13 14 15 16 17 18 19 >>
Time Temp. Humidity Pressure Rain* Wind** Luminosity Snow
1788555303 30° C 17% 1009.7 hPa 0 mm - - -
1788554460 30° C 16% 1009.7 hPa 0 mm - - -
1788553618 30° C 18% 1009.6 hPa 0 mm - - -
1788553198 29.44° C 18% 1009.9 hPa 0 mm - - -
1788552777 29.44° C 18% 1010 hPa 0 mm - - -
1788552355 30° C 18% 1010.2 hPa 0 mm - - -
1788551934 28.89° C 19% 1010.6 hPa 0 mm - - -
1788551515 28.89° C 18% 1010.5 hPa 0 mm - - -
1788551094 29.44° C 18% 1010.6 hPa 0 mm - - -
1788550671 28.89° C 18% 1010.4 hPa 0 mm - - -
1788550251 28.89° C 18% 1010.8 hPa 0 mm - - -
1788549833 29.44° C 17% 1010.7 hPa 0 mm - - -
1788549408 29.44° C 17% 1010.6 hPa 0 mm - - -
1788548990 28.33° C 18% 1011.1 hPa 0 mm - - -
1788548567 28.33° C 19% 1010.9 hPa 0 mm - - -
1788548145 28.33° C 19% 1011 hPa 0 mm - - -
1788547724 28.33° C 19% 1011.1 hPa 0 mm - - -
1788547303 28.33° C 19% 1011.5 hPa 0 mm - - -
1788546883 27.78° C 20% 1011.1 hPa 0 mm - - -
1788546461 27.78° C 20% 1011.5 hPa 0 mm - - -
1788546040 27.78° C 18% 1011.7 hPa 0 mm - - -
1788545716 28.89° C 19% 1011.5 hPa 0 mm - - -
1788545619 28.89° C 19% 1011.5 hPa 0 mm - - -
1788545198 28.33° C 19% 1011.7 hPa 0 mm - - -
1788544777 28.33° C 18% 1011.7 hPa 0 mm - - -

* Rain latest hour (hover to see other rain measurements)
** Current wind speed in m/s (hover to see current wind gust speed)